Orbital Elements at Epoch 2459000.5 (2020-May-31.0) TDB
Reference: JPL 12 (heliocentric ecliptic J2000)
Element | Value | Uncertainty (1-sigma) | Units |
e | .1112706502038548 | 5.8148e-08 | |
a | 2.717204362455238 | 2.9283e-08 | au |
q | 2.414859266308093 | 1.6914e-07 | au |
i | 5.929544964879004 | 6.1639e-06 | deg |
node | 56.70442941143389 | 6.8845e-05 | deg |
peri | 354.5121415337822 | 7.7372e-05 | deg |
M | 353.9620867548835 | 3.5531e-05 | deg |
tp | 2459027.938871731849 (2020-Jun-27.43887173) | 0.00016165 | TDB |
period | 1635.994659488514 4.48 | 2.6447e-05 7.241e-08 | d yr |
n | .2200496180791644 | 3.5572e-09 | deg/d |
Q | 3.019549458602384 | 3.2542e-08 | au |
|
| | Orbit Determination Parameters
Additional Information
|